Voltar ao catálogo

FENGYUN 1C DEB

AtivoPO
NORAD 36269·DEBRIS·🇨🇳 China

Lançado May 10, 1999 de Taiyuan Satellite Launch Center

Loading…

Próximas Passagens (próximas 24 horas)

TLE

AtualizadoSource: Space-Track

Época: Sep 14, 2026, 04:02 UTC

1 36269U 99025DWW 26257.16854963  .00000688  00000-0  22556-3 0  9990
2 36269  99.1368 216.4513 0230474 205.3312 153.6424 14.28036387916465

Acompanhe FENGYUN 1C DEB em tempo real com AllMySat

Download on the App Store